Wind_Speed
3 3 6 8 10 7 4 2 1 2 3 3 2 3 1 2 3 4 6 7 6 6 7 9 9 9 13 14 15 22 21 19
2 3 6 9 11 10 8 3 1 1 2 3 3 3 2 1 2 4 5 7 6 7 7 8 10 12 12 14 17 18 17 17
6 6 8 9 9 8 8 5 0 2 0 2 3 4 2 3 3 2 3 4 7 9 9 10 12 14 11 13 16 18 19 19
4 3 8 8 8 6 6 6 8 6 4 4 4 4 4 4 4 4 5 6 7 7 9 9 10 15 15 16 15 17 18 20
6 5 10 7 7 6 7 8 8 8 5 7 6 7 7 9 8 7 8 8 8 8 8 10 14 16 19 20 21 20 18 17
6 11 12 6 5 6 8 10 9 9 8 7 8 6 8 10 11 11 11 11 11 12 12 10 10 12 13 13 18 26 19 18
8 13 12 10 7 7 9 11 12 14 13 13 14 13 13 12 13 13 13 13 12 13 15 15 15 15 16 16 15 15 19 28
15 14 13 13 9 9 10 12 16 17 17 17 18 17 16 15 15 16 16 15 14 13 12 13 13 14 16 17 19 19 19 19
13 12 13 16 15 12 12 15 17 18 18 18 17 16 17 18 18 18 17 16 14 14 13 12 13 14 15 15 17 19 20 23
12 13 15 20 18 16 17 18 17 19 19 19 19 18 17 19 19 17 16 16 15 14 11 11 12 15 16 18 20 19 20 21
12 11 15 18 18 20 21 20 20 21 23 23 22 20 17 19 19 16 13 13 13 13 12 12 14 14 16 17 19 22 24 23
10 13 15 15 18 20 21 22 23 23 22 25 26 25 21 19 19 18 14 14 15 13 12 13 14 16 18 20 20 20 21 20
10 11 12 15 15 17 19 22 23 25 26 27 24 24 27 24 20 19 19 17 14 14 14 15 13 15 20 22 23 22 25 27
8 8 10 12 14 16 19 22 25 27 25 23 26 29 29 27 26 26 23 19 18 18 18 15 12 13 17 20 20 33 27 29
5 5 10 13 15 16 20 24 28 31 33 32 30 29 34 32 32 30 28 24 23 21 21 16 16 13 13 13 17 18 39 33
7 8 11 14 19 22 25 28 30 31 33 33 31 34 30 32 31 30 26 24 24 21 20 17 16 15 16 16 20 25 32 36
6 9 13 15 20 24 29 33 39 38 37 36 36 35 36 30 31 34 33 30 24 19 16 18 19 15 15 20 25 30 35 36
3 5 8 13 20 26 29 33 36 38 39 41 43 40 39 33 31 36 32 30 31 28 27 23 23 23 24 29 33 34 32 34
8 15 22 28 33 32 37 42 36 33 33 31 39 41 32 32 31 30 27 24 21 19 24 24 24 30 34 27 30 32 31 32
16 19 25 29 32 37 39 32 34 35 33 32 34 36 27 26 23 20 15 16 22 23 28 33 35 21 25 29 32 33 34 34
Wind_Direction
71 40 24 19 11 17 16 320 243 187 184 182 168 172 277 326 330 302 297 290 292 291 289 290 264 235 249 254 242 241 257 259
270 343 352 350 346 337 345 336 242 216 173 179 203 232 230 181 311 304 305 295 281 268 266 258 273 249 239 248 251 255 253 250
251 285 320 320 315 304 328 324 317 336 312 201 202 203 229 224 250 274 290 289 286 282 265 253 247 249 247 246 251 264 268 264
242 303 321 287 280 274 311 299 302 304 273 244 224 218 228 240 257 275 276 284 285 282 284 272 254 252 253 255 255 255 257 262
251 295 330 302 280 270 279 281 295 303 267 248 235 242 256 260 264 268 249 260 272 275 277 278 266 261 269 266 262 261 251 255
267 308 327 288 272 277 271 276 283 295 281 253 250 261 266 271 266 268 253 253 253 253 257 260 259 263 269 279 270 254 246 242
285 297 317 303 274 268 269 267 274 276 270 264 261 265 272 274 271 271 268 263 261 265 264 265 272 277 283 284 281 282 268 260
291 298 302 312 284 270 269 272 271 269 266 265 269 276 274 271 269 269 267 261 265 273 272 276 278 281 285 287 289 285 282 277
270 272 290 308 298 291 282 281 273 269 272 271 274 279 275 271 265 261 263 264 267 275 283 293 299 302 303 299 291 292 289 290
264 271 295 312 309 301 297 290 280 278 280 283 282 281 276 269 256 253 255 261 269 274 280 287 298 303 304 303 300 295 289 288
254 282 309 313 307 300 295 288 284 282 282 285 288 285 283 273 261 257 262 262 261 269 283 303 310 311 310 308 304 301 302 303
280 310 322 322 310 305 301 294 287 276 270 280 285 283 283 283 265 258 257 267 267 267 283 300 310 318 318 315 312 310 310 310
300 327 332 336 323 314 305 303 300 292 275 278 268 267 277 276 271 259 250 253 257 259 269 290 302 318 318 316 314 315 318 318
317 334 326 340 327 324 307 298 294 289 288 275 267 267 269 263 267 270 251 242 242 250 256 271 275 300 299 307 317 310 317 312
285 313 322 324 330 306 298 294 293 289 288 282 274 262 260 262 265 260 250 245 244 244 250 246 253 270 265 295 316 308 312 311
287 295 303 322 323 313 308 298 290 297 294 285 275 267 262 256 257 251 235 237 233 221 223 233 249 258 270 287 300 301 307 309
289 293 295 310 317 315 312 310 305 297 292 282 273 261 256 252 246 241 237 238 218 221 238 256 264 266 277 286 297 297 291 295
358 336 330 332 326 321 315 312 306 297 292 287 275 263 257 252 239 233 232 223 232 235 247 257 253 265 274 294 289 294 295 296
322 339 331 325 309 313 312 309 306 300 301 298 293 257 247 252 237 214 209 213 223 233 244 255 271 283 289 289 286 288 290 290
331 317 305 309 309 308 314 308 307 308 307 303 289 255 229 209 202 199 205 248 253 259 273 277 285 293 294 289 287 285 285 285
Height
1547 1548 1547 1548 1547 1545 1544 1543 1541 1541 1540 1540 1539 1539 1538 1537 1537 1536 1535 1535 1535 1536 1538 1538 1537 1536 1536 1535 1535 1536 1536 1540
1548 1547 1547 1546 1545 1544 1544 1543 1542 1541 1540 1539 1539 1538 1538 1537 1537 1536 1535 1534 1534 1535 1535 1536 1536 1536 1535 1535 1535 1535 1535 1534
1546 1545 1544 1544 1543 1542 1541 1541 1541 1540 1540 1538 1538 1538 1537 1536 1536 1535 1534 1534 1533 1532 1533 1533 1534 1533 1534 1535 1534 1534 1533 1534
1544 1543 1542 1541 1541 1540 1540 1539 1540 1539 1539 1538 1538 1538 1537 1536 1535 1535 1534 1533 1532 1532 1531 1530 1531 1531 1532 1532 1530 1532 1532 1534
1544 1543 1542 1540 1540 1539 1538 1537 1537 1538 1537 1536 1536 1536 1536 1535 1535 1534 1533 1532 1531 1530 1530 1529 1529 1529 1529 1528 1528 1528 1528 1528
1542 1542 1541 1540 1539 1539 1538 1536 1536 1536 1536 1536 1535 1535 1535 1535 1534 1533 1532 1532 1531 1530 1529 1528 1528 1527 1527 1525 1525 1526 1526 1525
1539 1540 1540 1539 1538 1537 1537 1536 1534 1534 1534 1533 1533 1532 1532 1532 1532 1531 1530 1529 1529 1528 1527 1525 1524 1523 1522 1521 1521 1519 1519 1521
1536 1537 1538 1537 1537 1537 1536 1535 1534 1533 1533 1532 1531 1531 1530 1529 1529 1528 1527 1526 1525 1524 1523 1522 1521 1520 1519 1517 1516 1516 1515 1516
1533 1534 1535 1535 1534 1534 1535 1534 1533 1532 1531 1530 1530 1529 1527 1526 1525 1524 1523 1522 1522 1522 1521 1519 1518 1517 1515 1514 1514 1513 1512 1512
1531 1532 1533 1532 1532 1531 1531 1531 1530 1529 1528 1527 1527 1525 1524 1522 1520 1520 1520 1520 1520 1519 1518 1517 1516 1515 1514 1512 1510 1510 1509 1509
1531 1531 1531 1531 1530 1529 1528 1527 1526 1525 1525 1524 1523 1522 1521 1520 1520 1520 1519 1518 1517 1516 1516 1514 1513 1512 1510 1509 1508 1506 1503 1502
1530 1530 1530 1529 1528 1526 1525 1524 1523 1522 1521 1521 1520 1518 1518 1517 1516 1516 1516 1515 1514 1514 1513 1511 1510 1508 1507 1506 1505 1504 1502 1500
1528 1528 1527 1526 1526 1525 1523 1521 1520 1518 1517 1516 1515 1515 1515 1514 1513 1512 1511 1510 1509 1509 1509 1508 1507 1505 1502 1500 1499 1498 1496 1495
1524 1525 1525 1523 1522 1520 1519 1516 1514 1513 1512 1510 1509 1509 1509 1509 1508 1507 1506 1506 1506 1505 1504 1504 1503 1502 1500 1497 1494 1491 1491 1490
1522 1521 1520 1519 1518 1515 1513 1511 1508 1506 1504 1502 1501 1501 1500 1500 1500 1500 1500 1499 1499 1500 1499 1498 1497 1497 1496 1496 1493 1489 1484 1483
1519 1518 1517 1515 1513 1511 1508 1505 1502 1499 1496 1494 1493 1492 1491 1491 1492 1492 1493 1493 1492 1492 1491 1492 1492 1491 1490 1491 1490 1489 1485 1474
1517 1515 1515 1514 1512 1508 1504 1500 1495 1492 1489 1487 1485 1484 1482 1481 1482 1482 1483 1483 1484 1485 1487 1486 1484 1483 1482 1480 1484 1483 1482 1478
1514 1513 1512 1511 1508 1505 1500 1495 1491 1486 1483 1480 1477 1475 1476 1477 1474 1475 1476 1475 1475 1475 1476 1477 1478 1476 1476 1476 1477 1477 1474 1472
1512 1512 1510 1506 1504 1500 1495 1488 1483 1479 1476 1472 1470 1468 1465 1471 1470 1469 1469 1468 1466 1468 1469 1468 1472 1470 1470 1470 1471 1469 1468 1466
1509 1507 1504 1499 1494 1490 1486 1481 1477 1473 1470 1466 1461 1460 1459 1462 1463 1461 1460 1460 1459 1461 1461 1462 1463 1464 1463 1463 1463 1462 1461 1459